カタログに戻る

ARIANE 5 R/B

運用中HEO
NORAD 38333·ROCKET BODY·🇫🇷 France

打ち上げ May 15, 2012 から Guiana Space Centre

Loading…

次のパス (今後24時間)

TLE

最新Source: Space-Track

元期: Sep 14, 2026, 02:50 UTC

1 38333U 12023C   26257.11818615  .00003366  00000-0  10501-2 0  9998
2 38333   1.5420 248.2046 7062426 111.2481 332.6021  2.55503634126172

AllMySatでARIANE 5 R/Bをリアルタイム追跡

Download on the App Store